Weather History for KAEX - January, 2011

Change the Weather History Date:

Saturday, January 1, 2011

  Actual Average Record
Temperature  
Mean Temperature 49 °F 49 °F  
Max Temperature 59 °F 59 °F 81 °F (1952)
Min Temperature 38 °F 39 °F 17 °F (1964)
Degree Days  
Heating Degree Days 16 16  
Month to date heating degree days 16 16  
Since 1 July heating degree days 823 805  
Moisture  
Dew Point 35 °F    
Average Humidity 55    
Maximum Humidity 83    
Minimum Humidity 26    
Precipitation  
Precipitation 0.01 in 0.13 in 2.60 in (1911)
Month to date precipitation 0.01 0.13  
Year to date precipitation 0.01 0.13  
Snow  
Snow 0.00 in - 0.40 in (2001)
Month to date snowfall  
Since 1 July snowfall 0.0  
Snow Depth 0.00 in    
Sea Level Pressure  
Sea Level Pressure 30.07 in    
Wind  
Wind Speed 8 mph (North)    
Max Wind Speed 20 mph    
Max Gust Speed 26 mph    
Visibility 10 miles    
Events Rain , Thunderstorm    
T = Trace of Precipitation, MM = Missing Value Source: NWS Daily Summary

Daily Weather History Graph

Daily Weather History Graph

Search for Another Location

Airport or City:

Trip Planner

Search our weather history database for the weather conditions in past years. The results will help you decide how hot, cold, wet, or windy it might be!

Date:

Astronomy

Jan. 01, 2011 Rise Set
Actual Time 7:09 AM CST 5:18 PM CST
Civil Twilight 6:42 AM CST 5:45 PM CST
Nautical Twilight 6:12 AM CST 6:15 PM CST
Astronomical Twilight 5:42 AM CST 6:44 PM CST
Moon 4:41 AM CST (1/1) 2:58 PM CST (1/1)
Length of Visible Light 11h 02m
Length of Day
10h 09m
Waning Crescent, 7% of the Moon is Illuminated
Jan 1
Waning Crescent
Jan 4
New
Jan 12
First Quarter
Jan 19
Full
Jan 26
Last Quarter

Hourly Weather History & Observations

Time (CST) Temp. Windchill Dew Point Humidity Pressure Visibility Wind Dir Wind Speed Gust Speed Precip Events Conditions
12:21 AM 55.4 °F - 50.0 °F 82% 29.87 in 10.0 mi WNW 5.8 mph - 0.01 in Rain , Thunderstorm Light Thunderstorms and Rain
12:40 AM 53.6 °F - 48.2 °F 82% 29.87 in 10.0 mi NNW 8.1 mph - 0.01 in   Overcast
12:53 AM 54.0 °F - 46.0 °F 75% 29.88 in 10.0 mi North 8.1 mph - 0.01 in   Overcast
1:53 AM 54.0 °F - 48.0 °F 80% 29.90 in 10.0 mi NNW 4.6 mph - N/A   Overcast
2:53 AM 54.0 °F - 48.0 °F 80% 29.91 in 10.0 mi Calm Calm - N/A   Overcast
3:53 AM 54.0 °F - 48.0 °F 80% 29.91 in 10.0 mi Calm Calm - N/A   Overcast
4:53 AM 54.0 °F - 46.9 °F 77% 29.93 in 10.0 mi NNW 5.8 mph - N/A   Overcast
5:53 AM 53.1 °F - 41.0 °F 64% 29.98 in 10.0 mi NNW 9.2 mph - 0.00 in   Overcast
6:53 AM 52.0 °F - 39.0 °F 61% 30.01 in 10.0 mi NNW 9.2 mph - N/A   Overcast
7:53 AM 52.0 °F - 37.0 °F 57% 30.05 in 10.0 mi North 11.5 mph - N/A   Overcast
8:53 AM 52.0 °F - 32.0 °F 47% 30.11 in 10.0 mi North 10.4 mph - N/A   Overcast
9:53 AM 53.1 °F - 27.0 °F 37% 30.12 in 10.0 mi North 11.5 mph - N/A   Overcast
10:53 AM 55.0 °F - 24.1 °F 30% 30.12 in 10.0 mi NNE 19.6 mph 26.5 mph N/A   Mostly Cloudy
11:53 AM 55.0 °F - 21.9 °F 28% 30.11 in 10.0 mi North 11.5 mph - N/A   Overcast
12:53 PM 57.0 °F - 25.0 °F 29% 30.10 in 10.0 mi North 10.4 mph - N/A   Overcast
1:53 PM 57.9 °F - 27.0 °F 31% 30.11 in 10.0 mi NNW 8.1 mph - N/A   Overcast
2:53 PM 59.0 °F - 28.0 °F 31% 30.10 in 10.0 mi NNE 6.9 mph - N/A   Partly Cloudy
3:53 PM 59.0 °F - 28.0 °F 31% 30.12 in 10.0 mi North 10.4 mph 18.4 mph N/A   Clear
4:53 PM 55.9 °F - 28.9 °F 36% 30.14 in 10.0 mi NNE 6.9 mph - N/A   Clear
5:53 PM 51.1 °F - 32.0 °F 48% 30.16 in 10.0 mi North 6.9 mph - N/A   Clear
6:53 PM 48.9 °F - 32.0 °F 52% 30.18 in 10.0 mi North 5.8 mph - N/A   Clear
7:53 PM 46.9 °F - 30.9 °F 54% 30.21 in 10.0 mi North 4.6 mph - N/A   Clear
8:53 PM 45.0 °F 41.8 °F 30.9 °F 58% 30.23 in 10.0 mi North 5.8 mph - N/A   Clear
9:53 PM 44.1 °F 40.8 °F 30.0 °F 58% 30.25 in 10.0 mi North 5.8 mph - N/A   Clear
10:53 PM 39.9 °F 35.8 °F 30.9 °F 70% 30.26 in 10.0 mi NW 5.8 mph - N/A   Clear
11:53 PM 37.9 °F 32.7 °F 30.9 °F 76% 30.26 in 10.0 mi NW 6.9 mph - N/A   Clear